Location: Saint-Palais-sur-Mer
(45.6429°N, 1.0859°W)
Time: 00:39:16
(UTC+01:00)

Tiros 1 despin weight - Pass Details

Date: 08 February 2026
Orbit: 556 x 593 km, 48.2° (Epoch: 13 March)

Event Time Altitude Azimuth Distance (km) Brightness Sun altitude
Rises 00:20:04 0° 287° (WNW) 2,748 - -57.0°
Reaches altitude 10° 00:22:19 10° 288° (WNW) 1,856 - -57.2°
Maximum altitude 00:26:34 85° 17° (NNE) 574 - -57.5°
Drops below altitude 10° 00:30:52 10° 107° (ESE) 1,875 - -57.8°
Sets 00:33:08 0° 107° (ESE) 2,778 - -58.0°
